星链-3773 (STARLINK-3773 )

导读 | 星芒AI

STARLINK-3773 是 SpaceX 星链计划中的一颗低轨卫星,属于第 17 批组网发射的星链卫星群。该卫星运行在约 550 公里的轨道高度,旨在为全球用户提供高速互联网服务。作为星链星座的一部分,STARLINK-3773 采用先进推进系统和激光通信技术,提升网络稳定性和传输效率。其部署有助于扩大星链在偏远地区的网络覆盖,支持通信、科研及商业应用。

基本信息
目录编号:
52291
目录名称:
STARLINK-3773
国际标识:
2022-041AG
轨道中心:
EARTH
卫星名称:
星链-3773
卫星全名:
星链-3773 (STARLINK-3773 )
卫星状态:
已陨落 最后检测时间 2025-09-08
发射日期:
2022-04-21 UTC
国别 :
美国 (US)
星等 :
--
轨道信息
数据来源 国际轨道数据
星历时间: 2025-09-09T01:33:37+0800
轨道信息已过期103天
半长轴: 6520.985km
偏心率: 0.0007632
轨道倾角: 53.164°
近地点辐角 269.365°
升交点赤经 78.651°
平近点角 90.652°
近地点: 137.873km
远地点: 147.827km
周期: 87.343分钟
每日圈数: 16.486674
详细信息
固有亮度:
5
最大亮度:
2.5
卫星平台:
Starlink v1.5
覆盖范围:
全球
运营商:
太空探索技术公司
运营商所在国:
美国
制造商(研发单位):
太空探索技术公司
制造商所在国:
美国
使用方式:
暂无
卫星简介
星链(Starlink)计划是由太空探索技术公司(SpaceX)提出的一个巨型低轨卫星互联网星座项目,计划在2019年至2024年间在太空搭建由约1.2万颗卫星组成的“星链”网络,其中1584颗将部署在地球上空550千米处的近地轨道,并从2020年开始工作。该卫星仍在工作。